This demonstration page uses our WeatherBlox Daily Observations layout. Learn more.

Left ArrowRight Arrow

53.62937, 11.41316

Hourly Observations for February 14, 2018

Temp ( °F °C ) Dew Point ( °F °C ) Humidity (%) Winds ( mph kmh ) Pressure ( in mb ) Visibility ( mi km ) Precip ( " mm )
7:50 am 07:50 Mostly Sunny 18 -8 16 -9 93 93 ENE 6 9 30.12 1020 7 11 N/A
8:20 am 08:20 Mostly Sunny 19 -7 18 -8 93 93 ENE 6 9 30.12 1020 7 11 N/A
8:50 am 08:50 Mostly Sunny 25 -4 25 -4 100 100 ENE 6 9 30.15 1021 7 11 N/A
9:20 am 09:20 Mostly Sunny 28 -2 27 -3 93 93 ENE 6 9 30.15 1021 7 11 N/A
9:50 am 09:50 Mostly Sunny 30 -1 25 -4 80 80 ENE 5 7 30.15 1021 7 11 N/A
10:20 am 10:20 Mostly Sunny 32 0 25 -4 75 75 ENE 6 9 30.12 1020 7 11 N/A
10:50 am 10:50 Mostly Sunny 34 1 27 -3 75 75 E 3 6 30.15 1021 7 11 N/A
11:20 am 11:20 Mostly Sunny 37 3 27 -3 65 65 SE 7 11 30.15 1021 7 11 N/A
11:50 am 11:50 Mostly Sunny 39 4 27 -3 61 61 SSE 6 9 30.15 1021 7 11 N/A
12:20 pm 12:20 Mostly Sunny 39 4 25 -4 56 56 SSE 9 15 30.15 1021 7 11 N/A
12:50 pm 12:50 Mostly Sunny 39 4 25 -4 56 56 SSE 10 17 30.15 1021 30 48 N/A
1:20 pm 13:20 Mostly Sunny 39 4 23 -5 52 52 SSE 12 19 30.15 1021 30 48 N/A
1:50 pm 13:50 Mostly Sunny 41 5 25 -4 53 53 SSE 9 15 30.15 1021 30 48 N/A
2:20 pm 14:20 Mostly Sunny 41 5 23 -5 49 49 S 7 11 30.15 1021 30 48 N/A
2:50 pm 14:50 Mostly Sunny 39 4 23 -5 52 52 S 9 15 30.15 1021 30 48 N/A
3:20 pm 15:20 Mostly Sunny 39 4 23 -5 52 52 SSE 10 17 30.15 1021 7 11 N/A
3:50 pm 15:50 Mostly Sunny 39 4 21 -6 48 48 SSE 9 15 30.15 1021 7 11 N/A
4:20 pm 16:20 Mostly Sunny 39 4 23 -5 52 52 ESE 9 15 30.15 1021 7 11 N/A
4:50 pm 16:50 Mostly Sunny 37 3 25 -4 60 60 ESE 8 13 30.15 1021 7 11 N/A
5:20 pm 17:20 Mostly Sunny 36 2 25 -4 65 65 ESE 7 11 30.15 1021 7 11 N/A
5:50 pm 17:50 Mostly Clear 34 1 25 -4 70 70 ESE 6 9 30.15 1021 7 11 N/A

Powered by AerisWeather